Weather reports worldwide

Advertisment
Culdrose, United Kingdom (3809): temperature & dewpoint: 25.09.2020 00:00:00 - 01.10.2020 00:00:00 (BST)Culdrose, United Kingdom (3809): wind speed & gusts: 25.09.2020 00:00:00 - 01.10.2020 00:00:00 (BST)Culdrose, United Kingdom (3809): wind direction: 25.09.2020 00:00:00 - 01.10.2020 00:00:00 (BST)Culdrose, United Kingdom (3809): reduced air pressure: 25.09.2020 00:00:00 - 01.10.2020 00:00:00 (BST)Culdrose, United Kingdom (3809): visibility: 25.09.2020 00:00:00 - 01.10.2020 00:00:00 (BST)Culdrose, United Kingdom (3809): precipitation: 25.09.2020 00:00:00 - 01.10.2020 00:00:00 (BST)
Date & Time tt [°C] td [°C] ff [km/h] ff [kn] fx [km/h] fx [kn] dd ppp [hPa] vv [km] rr [mm]
01.10.2020 00:00:00 10,8 9,4 21 11 - - WNW 1003,5 19 -
30.09.2020 23:00:00 11,1 9,0 18 10 - - WNW 1003,6 24 0,0
30.09.2020 22:00:00 11,2 9,4 21 11 - - WNW 1003,5 23 -
30.09.2020 21:00:00 11,8 9,3 21 11 - - W 1002,9 25 0,0
30.09.2020 20:00:00 12,2 9,6 21 11 - - W 1002,8 20 0,0
30.09.2020 19:00:00 13,0 10,4 26 14 - - WNW 1002,8 28 0,0
30.09.2020 18:00:00 14,3 11,7 26 14 - - WNW 1002,2 30 0,0
30.09.2020 17:00:00 14,6 12,0 26 14 - - W 1002,0 10 -
30.09.2020 16:00:00 15,6 13,2 18 10 - - WSW 1002,3 10 -
30.09.2020 15:00:00 14,6 13,3 18 10 - - WSW 1002,3 15 -
30.09.2020 14:00:00 14,4 14,2 16 9 - - WSW 1002,5 10 0,8
30.09.2020 13:00:00 14,6 14,4 22 12 55 30 SW 1002,8 2,0 0,0
30.09.2020 12:00:00 14,7 14,5 34 18 67 36 SSW 1002,8 4,0 -
30.09.2020 11:00:00 14,1 14,0 34 18 70 38 SSW 1003,2 2,0 6,0
30.09.2020 10:00:00 13,8 13,6 34 18 61 33 S 1004,1 3,0 7,0
30.09.2020 09:00:00 13,8 13,2 29 16 57 31 S 1004,9 8 1,0
30.09.2020 08:00:00 13,5 12,7 34 18 57 31 S 1006,1 8 1,2
30.09.2020 07:00:00 13,5 12,2 35 19 54 29 SSW 1007,2 10 0,6
30.09.2020 06:00:00 14,0 12,1 26 14 54 29 S 1007,9 10 -
30.09.2020 05:00:00 13,7 11,9 31 17 54 29 SSW 1009,0 18 0,0
30.09.2020 04:00:00 13,7 11,2 35 19 46 25 SSW 1009,9 22 -
30.09.2020 03:00:00 13,3 10,7 29 16 46 25 SSW 1011,1 40 0,0
30.09.2020 02:00:00 13,4 10,2 34 18 48 26 SSW 1011,9 35 0,0
30.09.2020 01:00:00 13,5 10,6 34 18 - - SSW 1012,9 28 0,0
30.09.2020 00:00:00 13,3 10,8 29 16 - - SSW 1013,8 35 0,0
29.09.2020 23:00:00 13,2 10,4 29 16 - - SSW 1014,6 40 0,0
29.09.2020 22:00:00 13,3 10,1 21 11 - - SSW 1015,1 45 0,0
29.09.2020 21:00:00 13,5 10,4 21 11 - - SW 1015,6 28 -
29.09.2020 20:00:00 12,7 10,2 16 9 - - SW 1015,9 40 0,0
29.09.2020 19:00:00 13,2 10,3 16 9 - - WSW 1016,4 40 0,0
29.09.2020 18:00:00 14,4 11,0 16 9 - - WSW 1016,4 35 -
29.09.2020 17:00:00 15,2 11,2 13 7 - - SW 1016,5 10 0,0
29.09.2020 16:00:00 14,7 11,7 13 7 - - SW 1016,8 10 0,0
29.09.2020 15:00:00 15,1 11,1 18 10 - - WSW 1017,4 25 -
29.09.2020 14:00:00 15,0 10,4 16 9 - - SW 1017,9 10 0,0
29.09.2020 13:00:00 15,7 10,5 11 6 - - SW 1018,1 25 0,0
29.09.2020 12:00:00 16,5 11,6 8 4 - - WSW 1018,2 10 0,0
29.09.2020 11:00:00 15,3 10,9 9 5 - - NW 1018,4 25 0,0
29.09.2020 10:00:00 13,6 12,3 9 5 - - NW 1018,4 20 0,0
29.09.2020 09:00:00 11,0 10,8 5 3 - - NW 1018,3 10 0,0
29.09.2020 08:00:00 10,1 9,7 8 4 - - NW 1018,0 10 0,0
29.09.2020 07:00:00 9,8 9,4 9 5 - - NNW 1017,7 18 0,0
29.09.2020 06:00:00 10,4 9,7 11 6 - - NNW 1017,4 15 0,0
29.09.2020 05:00:00 10,6 9,8 16 9 - - NNW 1017,1 19 0,0
29.09.2020 04:00:00 11,1 10,4 18 10 - - NNW 1017,1 16 0,0
29.09.2020 03:00:00 11,4 11,0 21 11 - - NW 1017,1 17 0,0
29.09.2020 02:00:00 11,6 11,2 18 10 - - NW 1017,1 10 0,0
29.09.2020 01:00:00 11,8 11,5 16 9 - - NW 1017,0 13 0,0
29.09.2020 00:00:00 12,5 12,1 15 8 - - NW 1017,0 10 -
28.09.2020 23:00:00 13,2 12,8 16 9 - - NW 1016,8 10 0,0
28.09.2020 22:00:00 14,0 13,4 21 11 - - NNW 1016,6 10 0,0
28.09.2020 21:00:00 14,3 14,0 13 7 - - NW 1016,1 14 0,0
28.09.2020 20:00:00 14,4 14,2 16 9 - - NW 1015,5 10 0,0
28.09.2020 19:00:00 14,9 14,8 21 11 - - WNW 1015,1 11 0,2
28.09.2020 18:00:00 15,2 15,1 21 11 - - W 1014,3 10 -
28.09.2020 17:00:00 15,5 15,4 18 10 - - WSW 1014,1 0,2 0,0
28.09.2020 16:00:00 15,8 15,5 21 11 - - WSW 1014,2 3,0 0,0
28.09.2020 15:00:00 15,9 15,7 18 10 - - SW 1014,6 3,0 0,0
28.09.2020 14:00:00 16,0 15,9 24 13 - - WSW 1015,1 2,0 0,0
28.09.2020 13:00:00 15,8 15,7 15 8 - - WSW 1015,3 2,0 0,0
28.09.2020 12:00:00 15,6 15,6 18 10 - - SW 1015,4 1,0 0,0
28.09.2020 11:00:00 15,3 15,3 13 7 - - SW 1015,4 0,2 0,0
28.09.2020 10:00:00 15,1 15,1 9 5 - - WSW 1015,2 0,2 0,0
28.09.2020 09:00:00 14,7 14,6 11 6 - - WSW 1015,0 3,0 0,0
28.09.2020 08:00:00 14,6 14,5 8 4 - - WSW 1014,8 1,0 0,0
28.09.2020 07:00:00 14,5 14,4 13 7 - - W 1014,9 5 0,0
28.09.2020 06:00:00 14,2 14,1 13 7 - - SW 1014,8 0,2 0,2
28.09.2020 05:00:00 13,6 13,4 15 8 - - SW 1015,2 1,0 0,0
28.09.2020 04:00:00 13,2 12,9 15 8 - - W 1015,8 20 -
28.09.2020 03:00:00 10,5 9,8 4 2 - - WSW 1016,4 30 0,0
28.09.2020 02:00:00 11,5 10,5 18 10 - - W 1016,6 30 0,0
28.09.2020 01:00:00 11,5 10,1 13 7 - - WNW 1017,2 27 0,0
28.09.2020 00:00:00 11,2 9,2 16 9 - - WNW 1017,4 50 0,0
27.09.2020 23:00:00 9,9 7,2 13 7 - - W 1017,5 30 0,0
27.09.2020 22:00:00 10,4 6,8 11 6 - - W 1017,4 35 0,0
27.09.2020 21:00:00 10,2 7,1 18 10 - - WNW 1017,4 26 -
27.09.2020 20:00:00 10,0 6,6 16 9 - - WNW 1017,6 40 0,0
27.09.2020 19:00:00 11,7 6,5 16 9 - - WNW 1017,7 35 0,0
27.09.2020 18:00:00 12,9 6,5 18 10 - - NW 1017,5 25 -
27.09.2020 17:00:00 13,8 6,9 22 12 - - NW 1017,6 30 -
27.09.2020 16:00:00 14,0 7,0 26 14 - - NW 1017,8 25 0,0
27.09.2020 15:00:00 14,4 6,9 28 15 - - NW 1018,1 10 0,0
27.09.2020 14:00:00 14,3 6,5 26 14 - - NNW 1018,3 75 0,0
27.09.2020 13:00:00 13,9 5,9 29 16 - - N 1018,3 35 0,0
27.09.2020 12:00:00 13,3 5,6 31 17 - - NNW 1018,3 10 0,0
27.09.2020 11:00:00 13,1 5,8 29 16 46 25 NNW 1018,5 35 0,0
27.09.2020 10:00:00 12,3 6,3 21 11 - - NNW 1018,5 10 -
27.09.2020 09:00:00 11,7 6,2 18 10 - - NNW 1018,4 10 0,0
27.09.2020 08:00:00 11,4 5,9 18 10 - - NW 1018,2 35 0,0
27.09.2020 07:00:00 11,2 5,6 22 12 - - NNW 1018,2 35 0,0
27.09.2020 06:00:00 10,7 5,2 22 12 - - NNW 1018,3 30 -
27.09.2020 05:00:00 9,8 6,1 18 10 - - NNW 1018,5 30 0,0
27.09.2020 04:00:00 8,7 5,5 13 7 - - NNW 1019,0 30 0,0
27.09.2020 03:00:00 7,4 4,7 9 5 - - WNW 1019,2 50 0,0
27.09.2020 02:00:00 7,2 3,8 15 8 - - N 1019,4 35 0,0
27.09.2020 01:00:00 7,9 4,6 21 11 - - NNE 1019,6 23 0,0
27.09.2020 00:00:00 9,4 5,4 21 11 - - N 1019,2 40 0,0
26.09.2020 23:00:00 10,1 5,1 18 10 - - N 1019,4 65 0,0
26.09.2020 22:00:00 9,8 4,4 13 7 - - N 1019,4 10 -
26.09.2020 21:00:00 8,6 3,8 13 7 - - N 1018,7 10 0,0
26.09.2020 20:00:00 10,2 4,5 18 10 - - NNE 1017,9 10 0,0
26.09.2020 19:00:00 11,1 4,2 28 15 - - N 1017,7 10 0,0
26.09.2020 18:00:00 12,3 4,7 26 14 46 25 N 1017,6 29 0,0
26.09.2020 17:00:00 12,6 4,5 34 18 48 26 N 1016,7 30 0,0
26.09.2020 16:00:00 13,6 4,5 31 17 50 27 N 1016,4 40 0,0
26.09.2020 15:00:00 14,2 5,8 31 17 46 25 N 1016,1 28 0,0
26.09.2020 14:00:00 13,6 4,5 34 18 52 28 N 1016,1 75 0,0
26.09.2020 13:00:00 12,9 4,5 34 18 46 25 N 1016,1 40 0,0
26.09.2020 12:00:00 12,7 3,6 31 17 - - N 1016,2 35 0,0
26.09.2020 11:00:00 13,0 3,6 29 16 - - NNE 1016,1 35 0,0
26.09.2020 10:00:00 12,2 4,8 21 11 - - N 1015,9 40 0,0
26.09.2020 09:00:00 10,1 6,3 13 7 - - N 1016,0 50 0,0
26.09.2020 08:00:00 7,7 4,7 15 8 - - N 1015,8 25 0,0
26.09.2020 07:00:00 8,5 4,9 13 7 - - N 1015,5 27 0,0
26.09.2020 06:00:00 9,7 5,4 9 5 - - N 1015,7 45 0,0
26.09.2020 05:00:00 10,6 5,5 8 4 - - NNW 1015,8 26 0,0
26.09.2020 04:00:00 10,2 5,6 9 5 - - NW 1016,2 30 0,0
26.09.2020 03:00:00 10,4 5,2 9 5 - - NW 1016,7 50 0,0
26.09.2020 02:00:00 10,1 4,9 11 6 - - NW 1016,9 35 0,0
26.09.2020 01:00:00 10,6 5,3 16 9 - - NW 1017,3 40 0,0
26.09.2020 00:00:00 10,8 5,1 18 10 - - NW 1017,9 35 0,0
25.09.2020 23:00:00 10,4 4,3 13 7 - - NW 1018,0 24 0,0
25.09.2020 22:00:00 11,5 4,5 26 14 - - NW 1018,0 40 0,0
25.09.2020 21:00:00 11,7 4,8 26 14 - - NW 1017,7 50 -
25.09.2020 20:00:00 11,7 5,7 29 16 48 26 NW 1017,5 30 0,0
25.09.2020 19:00:00 12,0 6,7 34 18 55 30 NW 1016,9 30 0,0
25.09.2020 18:00:00 12,0 8,3 35 19 48 26 NW 1016,5 27 -
25.09.2020 17:00:00 12,5 9,1 29 16 55 30 NW 1016,1 75 0,2
25.09.2020 16:00:00 12,4 8,0 31 17 52 28 NW 1015,8 24 0,0
25.09.2020 15:00:00 13,4 6,4 35 19 55 30 NW 1015,3 10 0,0
25.09.2020 14:00:00 13,6 5,0 34 18 50 27 NNW 1015,0 10 0,0
25.09.2020 13:00:00 13,2 5,9 31 17 61 33 NNW 1014,2 20 0,0
25.09.2020 12:00:00 13,5 6,2 29 16 57 31 NNW 1013,5 10 0,0
25.09.2020 11:00:00 13,0 6,6 28 15 57 31 NNW 1013,0 10 0,0
25.09.2020 10:00:00 11,7 6,3 26 14 55 30 NNW 1011,9 10 0,0
25.09.2020 09:00:00 11,1 6,5 26 14 59 32 NNW 1010,5 20 0,2
25.09.2020 08:00:00 9,9 6,8 35 19 76 41 N 1008,8 20 0,0
25.09.2020 07:00:00 10,9 5,9 42 23 83 45 NNW 1007,0 10 0,0
25.09.2020 06:00:00 10,9 5,6 57 31 80 43 NNW 1005,5 35 0,0
25.09.2020 05:00:00 10,9 5,7 50 27 72 39 NNW 1004,5 30 0,0
25.09.2020 04:00:00 10,6 5,9 44 24 72 39 NNW 1003,8 10 0,0
25.09.2020 03:00:00 10,4 6,9 41 22 70 38 NW 1003,2 30 0,8
25.09.2020 02:00:00 10,8 7,1 37 20 55 30 NNW 1002,0 30 0,0
25.09.2020 01:00:00 9,4 7,3 39 21 61 33 N 1001,0 25 3,4
25.09.2020 00:00:00 8,9 7,3 48 26 72 39 N 999,8 2,1 1,8

tt = temperature
td = dewpoint
ff = wind speed
fx = gusts
dd = wind direction
ppp = reduced air pressure
vv = visibility
rr = precipitation

Next stations